This is the latest recevied weather packets stored in our database for station/object ED1ZAI-13. If no packets are shown the sender has not sent any weather packets the latest 10 day(s).
| Time | Temp. | Humidity | Pressure | Rain* | Wind** | Luminosity | Snow |
|---|---|---|---|---|---|---|---|
| 1777978747 | 11.11° C | 51% | 1010.8 hPa | 0 mm | - | - | - |
| 1777978147 | 11.11° C | 49% | 1010.9 hPa | 0 mm | - | - | - |
| 1777977547 | 9.44° C | 53% | 1011 hPa | 0 mm | - | - | - |
| 1777976947 | 11.11° C | 56% | 1010.9 hPa | 0 mm | - | - | - |
| 1777976347 | 10° C | 55% | 1011 hPa | 0 mm | - | - | - |
| 1777975747 | 9.44° C | 57% | 1011.1 hPa | 0 mm | - | - | - |
| 1777975147 | 11.11° C | 57% | 1011.1 hPa | 0 mm | - | - | - |
| 1777974546 | 9.44° C | 58% | 1011 hPa | 0 mm | - | - | - |
| 1777973804 | 9.44° C | 59% | 1011.2 hPa | 0 mm | - | - | - |
| 1777973203 | 8.89° C | 65% | 1011.2 hPa | 0 mm | - | - | - |
| 1777972603 | 9.44° C | 64% | 1011.2 hPa | 0 mm | - | - | - |
| 1777972003 | 8.33° C | 67% | 1011.4 hPa | 0 mm | - | - | - |
| 1777971404 | 8.33° C | 68% | 1011.3 hPa | 0 mm | - | - | - |
| 1777970804 | 7.22° C | 73% | 1011.5 hPa | 0 mm | - | - | - |
| 1777970204 | 7.78° C | 73% | 1011.5 hPa | 0 mm | - | - | - |
| 1777969604 | 7.22° C | 75% | 1011.4 hPa | 0 mm | - | - | - |
| 1777969004 | 7.22° C | 74% | 1011.4 hPa | 0 mm | - | - | - |
| 1777968403 | 7.22° C | 76% | 1011.3 hPa | 0 mm | - | - | - |
| 1777967804 | 7.22° C | 73% | 1011.3 hPa | 0 mm | - | - | - |
| 1777967204 | 7.22° C | 76% | 1011.3 hPa | 0 mm | - | - | - |
| 1777966603 | 7.22° C | 80% | 1011.4 hPa | 0 mm | - | - | - |
| 1777966004 | 7.22° C | 80% | 1011.4 hPa | 0 mm | - | - | - |
| 1777965404 | 6.67° C | 81% | 1011.4 hPa | 0 mm | - | - | - |
| 1777964804 | 6.67° C | 81% | 1011.3 hPa | 0 mm | - | - | - |
| 1777964203 | 6.11° C | 82% | 1011.5 hPa | 0 mm | - | - | - |
* Rain latest hour (hover to see other rain measurements)
** Current wind speed in m/s (hover to see current wind gust speed)